PBO Station Position Time Series. Reference Frame : NAM14
Format Version,1.1.0
4-character ID,P019
Station name,Cat_Creek_ID2007
Begin Date, 2007-04-29
End Date, 2019-10-07
Release Date, 2019-10-08
Reference position, 43.3001959684 North Latitude, -115.3116623785 East Longitude, 1682.37472 meters elevation,
Date, North (mm), East (mm), Vertical (mm), North Std. Deviation (mm), East Std. Deviation (mm),              Vertical Std. Deviation (mm), Quality,
2007-04-29,0.00, 0.00, 0.00, 2.12, 1.55, 7.05, repro,
2007-04-30,-0.32, 0.40, 5.37, 2.09, 1.54, 6.97, repro,
2007-05-01,0.24, 0.73, 2.62, 2.09, 1.55, 6.96, repro,
2007-05-02,-1.13, 0.47, -2.45, 2.18, 1.58, 7.24, repro,
2007-05-03,-1.08, 0.62, 2.38, 2.18, 1.58, 7.22, repro,
2007-05-04,-1.32, 1.01, 3.45, 2.12, 1.55, 7.03, repro,
2007-05-05,-0.55, 0.10, 5.10, 2.14, 1.59, 7.17, repro,
2007-05-06,-0.22, 0.99, 1.05, 2.09, 1.54, 6.98, repro,
2007-05-07,-0.24, 0.42, -3.44, 2.10, 1.55, 7.00, repro,
2007-05-08,-0.47, 0.61, 2.08, 2.14, 1.55, 7.08, repro,
2007-05-09,-1.31, 1.04, 5.37, 2.13, 1.55, 7.06, repro,
2007-05-10,-0.53, 0.97, -0.56, 2.21, 1.61, 7.40, repro,
2007-05-11,0.07, 0.89, -1.92, 2.19, 1.60, 7.35, repro,
2007-05-12,0.77, 1.23, 8.41, 2.10, 1.54, 6.93, repro,
2007-05-13,0.20, 0.76, 2.06, 2.16, 1.59, 7.23, repro,
2007-05-14,-0.53, 0.83, -1.41, 2.15, 1.58, 7.13, repro,
2007-05-15,-0.26, 0.57, 2.59, 2.12, 1.54, 6.99, repro,
2007-05-16,-0.13, 0.52, 1.41, 2.11, 1.55, 6.99, repro,
2007-05-17,-1.24, 0.74, 7.60, 2.12, 1.59, 7.10, repro,
2007-05-18,0.69, -0.09, 5.69, 2.19, 1.64, 7.32, repro,
2007-05-19,-1.01, 0.95, 1.48, 2.18, 1.59, 7.20, repro,
2007-05-20,0.08, 0.27, 1.48, 2.18, 1.59, 7.15, repro,
2007-05-21,-0.07, -1.50, 3.93, 2.11, 1.55, 6.95, repro,
2007-05-22,-0.11, -0.82, 3.12, 2.10, 1.56, 6.97, repro,
2007-05-23,0.36, 0.40, 0.59, 2.11, 1.56, 6.96, repro,
2007-05-24,0.24, -0.01, 2.96, 2.17, 1.60, 7.16, repro,
2007-05-25,0.38, 0.40, 2.39, 2.17, 1.59, 7.15, repro,
2007-05-26,-0.02, 1.29, 2.23, 2.17, 1.59, 7.13, repro,
2007-05-27,-0.47, -0.62, 4.38, 2.10, 1.55, 6.91, repro,
2007-05-28,-0.96, -1.61, 6.01, 2.12, 1.56, 6.98, repro,
2007-05-29,-1.12, -0.44, 0.21, 2.13, 1.57, 7.02, repro,
2007-05-30,0.22, 0.46, 5.41, 2.16, 1.57, 7.03, repro,
2007-05-31,-0.45, -0.11, -0.01, 2.16, 1.58, 7.11, repro,
2007-06-01,0.41, 0.62, 1.63, 2.10, 1.54, 6.89, repro,
2007-06-02,0.77, 0.63, 4.73, 2.10, 1.55, 6.92, repro,
2007-06-03,-0.25, 0.01, 6.84, 2.11, 1.56, 6.98, repro,
2007-06-04,-0.87, 0.49, 9.12, 2.10, 1.56, 6.97, repro,
2007-06-05,-1.02, 0.07, 11.71, 2.17, 1.58, 7.16, repro,
2007-06-06,-0.32, -0.29, 14.18, 2.09, 1.54, 6.90, repro,
2007-06-07,0.26, -0.50, 10.14, 2.07, 1.54, 6.86, repro,
2007-06-08,-0.25, 0.24, 5.24, 2.10, 1.55, 6.95, repro,
2007-06-09,0.20, 1.07, 4.56, 2.12, 1.59, 7.11, repro,
2007-06-10,-1.06, 1.19, 1.82, 2.11, 1.57, 7.04, repro,
2007-06-11,-1.80, 0.13, -2.88, 2.15, 1.64, 7.26, repro,
2007-06-12,-0.01, 0.09, 4.93, 2.14, 1.63, 7.22, repro,
2007-06-13,0.24, 0.03, -0.36, 2.13, 1.60, 7.07, repro,
2007-06-14,1.31, 0.59, -0.14, 2.14, 1.61, 7.11, repro,
2007-06-15,-0.71, 0.46, 2.76, 2.14, 1.63, 7.14, repro,
2007-06-16,-0.77, 0.95, 4.49, 2.11, 1.57, 7.03, repro,
2007-06-17,-0.10, 0.20, -4.24, 2.10, 1.56, 6.97, repro,
2007-06-18,-0.87, 0.65, 7.72, 2.09, 1.55, 6.98, repro,
2007-06-19,-0.17, 0.73, 0.42, 2.11, 1.57, 6.98, repro,
2007-06-20,-0.71, 0.82, -1.41, 2.09, 1.56, 6.92, repro,
2007-06-21,0.30, 0.92, 4.50, 2.09, 1.56, 6.95, repro,
2007-06-22,0.02, 0.46, 3.62, 2.09, 1.55, 6.91, repro,
2007-06-23,0.02, 0.81, 6.33, 2.10, 1.56, 7.00, repro,
2007-06-24,-0.46, 0.92, 2.14, 2.14, 1.60, 7.21, repro,
2007-06-25,-0.42, 0.03, 1.11, 2.10, 1.56, 6.97, repro,
2007-06-26,-0.72, 0.90, -3.61, 2.12, 1.58, 7.07, repro,
2007-06-27,-0.85, 1.09, 0.86, 2.09, 1.56, 6.96, repro,
2007-06-28,-0.22, 1.50, 0.10, 2.10, 1.56, 7.01, repro,
2007-06-29,-0.70, 0.86, 5.79, 2.10, 1.55, 6.99, repro,
2007-06-30,-1.34, 1.16, 3.86, 2.09, 1.56, 7.00, repro,
2007-07-01,-0.04, 1.73, 5.22, 2.09, 1.55, 6.98, repro,
2007-07-02,-0.53, 1.58, 7.77, 2.10, 1.56, 6.98, repro,
2007-07-03,0.09, 1.16, 3.73, 2.09, 1.55, 6.96, repro,
2007-07-04,-1.17, -0.40, 0.23, 2.11, 1.56, 7.00, repro,
2007-07-05,-1.04, 0.51, 2.58, 2.11, 1.56, 7.03, repro,
2007-07-06,-2.76, 1.76, 12.55, 2.10, 1.57, 7.01, repro,
2007-07-07,-1.60, 0.29, 7.56, 2.10, 1.57, 7.00, repro,
2007-07-08,-1.65, 1.36, 9.21, 2.09, 1.56, 6.94, repro,
2007-07-09,0.21, 1.12, 4.54, 2.10, 1.55, 6.92, repro,
2007-07-10,-0.78, 1.33, 9.56, 2.10, 1.56, 6.96, repro,
2007-07-11,-0.14, 1.10, 5.05, 2.10, 1.57, 6.99, repro,
2007-07-12,-1.20, 1.58, 7.08, 2.14, 1.64, 7.22, repro,
2007-07-13,-0.45, 1.32, 13.16, 2.15, 1.64, 7.23, repro,
2007-07-14,1.54, 1.15, 8.79, 2.17, 1.65, 7.41, repro,
2007-07-15,-0.92, 0.84, 8.06, 2.12, 1.61, 7.13, repro,
2007-07-16,-0.58, 1.45, 4.16, 2.16, 1.63, 7.27, repro,
2007-07-17,0.46, 2.64, 11.40, 2.28, 1.81, 7.88, repro,
2007-07-18,-1.46, 1.47, 14.02, 2.10, 1.58, 7.08, repro,
2007-07-19,1.19, 1.59, 8.15, 2.12, 1.56, 6.99, repro,
2007-07-20,-0.71, 0.61, 12.58, 2.14, 1.61, 7.14, repro,
2007-07-21,-0.86, 0.64, 10.54, 2.14, 1.61, 7.13, repro,
2007-07-22,-0.51, 0.38, 11.03, 2.18, 1.64, 7.32, repro,
2007-07-23,-0.53, 1.35, 8.24, 2.14, 1.63, 7.21, repro,
2007-07-24,-0.86, 0.94, 14.52, 2.15, 1.63, 7.19, repro,
2007-07-25,0.55, 0.61, 14.38, 2.16, 1.62, 7.24, repro,
2007-07-26,-0.32, -0.27, 16.26, 2.09, 1.55, 6.90, repro,
2007-07-27,-0.40, 2.78, 12.16, 2.29, 1.75, 7.82, repro,
2007-07-28,1.47, 2.31, 19.13, 2.25, 1.80, 7.89, repro,
2007-07-29,-0.79, 2.53, 12.21, 2.15, 1.65, 7.31, repro,
2007-07-30,0.02, 0.68, 18.38, 2.11, 1.56, 7.06, repro,
2007-07-31,-1.57, 0.36, 17.50, 2.11, 1.56, 7.01, repro,
2007-08-01,-0.62, 0.48, 15.47, 2.09, 1.56, 6.95, repro,
2007-08-02,0.13, 0.44, 11.73, 2.09, 1.57, 6.99, repro,
2007-08-03,-0.65, 1.91, 9.99, 2.14, 1.64, 7.24, repro,
2007-08-04,0.78, 1.03, 15.43, 2.12, 1.58, 7.09, repro,
2007-08-05,0.05, 0.32, 19.18, 2.14, 1.62, 7.16, repro,
2007-08-06,-1.53, 2.14, 23.36, 2.13, 1.59, 7.12, repro,
2007-08-07,-1.28, 0.65, 21.35, 2.14, 1.60, 7.13, repro,
2007-08-08,-0.05, 1.48, 17.06, 2.09, 1.57, 6.95, repro,
2007-08-09,0.27, -0.29, 21.37, 2.10, 1.56, 7.00, repro,
2007-08-10,-0.45, -0.55, 13.05, 2.09, 1.55, 6.94, repro,
2007-08-11,-0.57, 0.20, 17.57, 2.08, 1.56, 6.94, repro,
2007-08-12,-1.74, 0.87, 11.69, 2.09, 1.55, 6.93, repro,
2007-08-13,-0.91, 0.49, 11.42, 2.08, 1.56, 6.91, repro,
2007-08-14,-0.59, 0.15, 10.75, 2.25, 1.67, 7.44, repro,
2007-08-15,-0.76, 0.85, 11.62, 2.26, 1.67, 7.49, repro,
2007-08-16,0.87, 0.04, 20.74, 2.20, 1.61, 7.28, repro,
2007-08-17,-0.27, 0.75, 11.67, 2.21, 1.62, 7.34, repro,
2007-08-18,-1.69, 0.91, 13.62, 2.22, 1.65, 7.44, repro,
2007-08-19,-1.09, 0.62, 18.93, 2.22, 1.67, 7.50, repro,
2007-08-20,-0.67, 0.58, 11.44, 2.19, 1.61, 7.23, repro,
2007-08-21,-1.19, 2.53, 14.86, 2.21, 1.61, 7.26, repro,
2007-08-22,0.29, 0.23, 13.48, 2.20, 1.61, 7.21, repro,
2007-08-23,-0.63, -0.29, 17.44, 2.13, 1.55, 6.92, repro,
2007-08-24,-0.30, 1.58, 15.13, 2.26, 1.65, 7.31, repro,
2007-08-25,-0.61, 1.02, 12.71, 2.19, 1.63, 7.23, repro,
2007-08-26,-1.83, -1.22, 16.91, 2.23, 1.69, 7.43, repro,
2007-08-27,-0.08, 0.68, 16.89, 2.23, 1.68, 7.43, repro,
2007-08-28,-0.88, 0.55, 9.36, 2.18, 1.64, 7.26, repro,
2007-08-29,-0.23, 0.26, 12.15, 2.18, 1.63, 7.21, repro,
2007-08-30,-1.81, 0.89, 10.25, 2.19, 1.64, 7.25, repro,
2007-08-31,0.41, 0.95, 8.54, 2.21, 1.65, 7.31, repro,
2007-09-01,0.91, 0.43, 23.82, 2.45, 1.84, 8.43, repro,
2007-09-02,0.92, 1.54, 14.33, 2.18, 1.63, 7.19, repro,
2007-09-03,-0.20, -0.01, 11.32, 2.18, 1.63, 7.19, repro,
2007-09-04,-0.59, 1.46, 16.79, 2.20, 1.65, 7.25, repro,
2007-09-05,0.10, -0.76, 20.18, 2.22, 1.66, 7.37, repro,
2007-09-06,-0.65, -0.36, 9.58, 2.22, 1.65, 7.35, repro,
2007-09-07,-0.78, 0.62, 15.36, 2.18, 1.62, 7.12, repro,
2007-09-08,-0.80, 0.28, 14.51, 2.25, 1.71, 7.51, repro,
2007-09-09,0.35, 0.97, 14.60, 2.30, 1.78, 7.71, repro,
2007-09-10,-0.50, 0.20, 10.54, 2.21, 1.64, 7.22, repro,
2007-09-11,-0.02, 0.41, 10.00, 2.25, 1.70, 7.51, repro,
2007-09-12,-0.18, 0.38, 13.48, 2.24, 1.69, 7.44, repro,
2007-09-13,-0.57, 1.18, 18.82, 2.31, 1.67, 7.45, repro,
2007-09-14,1.88, 1.66, 14.77, 2.23, 1.66, 7.32, repro,
2007-09-15,1.73, -1.57, 19.69, 2.26, 1.65, 7.44, repro,
2007-09-16,0.27, -0.41, 12.95, 2.21, 1.63, 7.18, repro,
2007-09-17,-1.51, -0.51, 15.50, 2.28, 1.73, 7.61, repro,
2007-09-18,-0.85, 1.33, 12.88, 2.15, 1.63, 7.13, repro,
2007-09-19,-0.75, 0.27, 13.80, 2.11, 1.55, 6.85, repro,
2007-09-20,-1.02, 0.36, 19.68, 2.12, 1.56, 6.92, repro,
2007-09-21,0.61, -0.15, 16.22, 2.18, 1.61, 7.20, repro,
2007-09-22,0.07, -0.05, 12.15, 2.20, 1.61, 7.17, repro,
2007-09-23,-1.39, 1.06, 17.46, 2.28, 1.66, 7.34, repro,
2007-09-24,-0.54, 1.26, 10.86, 2.26, 1.62, 7.30, repro,
2007-09-25,-1.24, 1.04, 8.80, 2.19, 1.61, 7.19, repro,
2007-09-26,0.12, -0.44, 18.32, 2.23, 1.57, 7.10, repro,
2007-09-27,-0.80, 1.00, 16.64, 2.18, 1.61, 7.21, repro,
2007-09-28,-2.56, -0.38, 20.44, 2.16, 1.66, 7.27, repro,
2007-09-29,-1.51, 0.40, 16.59, 2.20, 1.65, 7.26, repro,
2007-09-30,-0.36, 0.04, 16.05, 2.32, 1.70, 7.50, repro,
2007-10-01,-1.50, -0.47, 12.53, 2.20, 1.65, 7.22, repro,
2007-10-02,-0.18, -1.19, 9.67, 2.27, 1.74, 7.69, repro,
2007-10-03,-2.53, -0.07, 20.42, 2.18, 1.64, 7.28, repro,
2007-10-04,-1.31, 0.16, 17.24, 2.19, 1.64, 7.31, repro,
2007-10-05,-0.15, 0.66, 18.54, 2.25, 1.71, 7.56, repro,
2007-10-06,-0.91, 0.44, 21.12, 2.19, 1.65, 7.24, repro,
2007-10-07,-0.59, 0.69, 15.93, 2.24, 1.67, 7.39, repro,
2007-10-08,-1.23, -0.70, 10.32, 2.48, 1.78, 8.12, repro,
2007-10-09,-1.30, 0.17, 9.35, 2.54, 1.93, 8.33, repro,
2007-10-10,-0.46, -0.16, 8.24, 2.35, 1.70, 7.64, repro,
2007-10-11,-0.90, 0.85, 7.93, 2.20, 1.66, 7.29, repro,
2007-10-12,-1.34, 0.65, 17.91, 2.25, 1.70, 7.50, repro,
2007-10-13,-1.90, -0.41, 14.87, 2.14, 1.61, 7.11, repro,
2007-10-14,-1.58, 0.16, 11.75, 2.14, 1.61, 7.12, repro,
2007-10-15,-0.77, -0.04, 13.27, 2.16, 1.64, 7.25, repro,
2007-10-16,-1.03, 0.09, 17.82, 2.12, 1.60, 7.05, repro,
2007-10-17,-3.40, 0.36, 23.96, 2.15, 1.64, 7.20, repro,
2007-10-18,-1.30, 0.59, 15.16, 2.19, 1.66, 7.28, repro,
2007-10-19,-1.06, -0.34, 16.34, 2.19, 1.64, 7.29, repro,
2007-10-20,-4.50, 0.15, 21.37, 2.16, 1.64, 7.23, repro,
2007-10-21,-0.99, 0.00, 9.03, 2.13, 1.60, 7.06, repro,
2007-10-22,-0.79, 0.31, 0.82, 2.11, 1.59, 7.03, repro,
2007-10-23,-0.80, 0.87, 4.73, 2.21, 1.66, 7.33, repro,
2007-10-24,-1.62, 1.21, 5.41, 2.25, 1.71, 7.57, repro,
2007-10-25,-0.55, -0.17, 10.28, 2.13, 1.60, 7.03, repro,
2007-10-26,-1.39, 0.48, 6.66, 2.18, 1.65, 7.26, repro,
2007-10-27,-2.24, 0.72, 0.50, 2.16, 1.63, 7.20, repro,
2007-10-28,-1.47, 1.34, 1.31, 2.11, 1.59, 7.00, repro,
2007-10-29,-1.65, 0.56, 5.85, 2.17, 1.61, 7.19, repro,
2007-10-30,-0.50, 0.28, 1.64, 2.15, 1.60, 7.13, repro,
2007-10-31,-1.81, 0.75, 6.64, 2.14, 1.59, 7.07, repro,
2007-11-01,-1.19, 0.88, 11.11, 2.11, 1.56, 6.93, repro,
2007-11-02,-1.41, 0.91, 7.51, 2.09, 1.57, 6.90, repro,
2007-11-03,-0.67, 0.57, 5.54, 2.10, 1.57, 6.95, repro,
2007-11-04,-1.09, 0.56, 8.71, 2.15, 1.59, 7.10, repro,
2007-11-05,-0.91, 0.27, 3.20, 2.11, 1.57, 6.94, repro,
2007-11-06,-1.26, 0.46, 1.04, 2.11, 1.57, 6.91, repro,
2007-11-07,-1.02, 0.90, 9.45, 2.09, 1.57, 6.92, repro,
2007-11-08,-0.87, 1.06, 10.39, 2.14, 1.61, 7.07, repro,
2007-11-09,-0.83, 0.59, 7.21, 2.17, 1.62, 7.15, repro,
2007-11-10,-0.52, -0.22, 12.46, 2.11, 1.57, 6.91, repro,
2007-11-11,-1.77, 0.58, 11.62, 2.10, 1.55, 6.86, repro,
2007-11-12,-0.57, 0.18, 7.63, 2.09, 1.56, 6.90, repro,
2007-11-13,-0.21, 0.50, 10.87, 2.09, 1.56, 6.86, repro,
2007-11-14,-0.35, -0.00, 5.48, 2.13, 1.59, 7.06, repro,
2007-11-15,-0.67, -0.14, 4.51, 2.15, 1.59, 7.06, repro,
2007-11-16,-0.67, -1.27, 6.44, 2.13, 1.58, 6.98, repro,
2007-11-17,-0.94, -0.69, 10.77, 2.10, 1.56, 6.88, repro,
2007-11-18,-0.61, -0.05, 10.17, 2.09, 1.56, 6.87, repro,
2007-11-19,-1.42, -0.59, 10.82, 2.10, 1.57, 6.94, repro,
2007-11-20,-0.59, -0.47, 8.63, 2.19, 1.68, 7.27, repro,
2007-11-21,0.07, -0.21, 3.43, 2.17, 1.67, 7.28, repro,
2007-11-22,-0.13, -0.14, 1.03, 2.19, 1.64, 7.18, repro,
2007-11-23,0.06, -0.02, 6.89, 2.28, 1.75, 7.74, repro,
2007-11-24,-0.36, -0.50, 8.21, 2.18, 1.67, 7.16, repro,
2007-11-25,-0.92, 0.41, 10.76, 2.21, 1.69, 7.33, repro,
2007-11-26,-0.93, 0.08, 2.48, 2.26, 1.70, 7.48, repro,
2007-11-27,-1.14, -1.10, 5.23, 2.15, 1.67, 7.18, repro,
2007-11-28,0.28, -1.03, -0.71, 2.26, 1.69, 7.44, repro,
2007-11-29,0.39, 0.06, 4.66, 2.28, 1.71, 7.44, repro,
2007-11-30,-0.45, 0.17, 7.05, 2.27, 1.72, 7.44, repro,
2007-12-01,-0.52, -0.23, 11.80, 2.36, 1.80, 7.94, repro,
2007-12-02,0.01, -0.37, 8.19, 2.47, 2.03, 8.48, repro,
2007-12-03,-1.00, -0.13, 3.40, 2.35, 1.82, 8.01, repro,
2007-12-04,-2.29, 0.76, 2.43, 2.38, 1.88, 8.09, repro,
2007-12-05,-0.73, -0.50, 6.31, 2.53, 2.03, 8.65, repro,
2007-12-06,-0.81, 0.65, 6.28, 2.49, 1.97, 8.44, repro,
2007-12-07,-0.60, -0.06, 11.47, 2.44, 1.94, 8.28, repro,
2007-12-08,0.26, 0.39, 6.63, 2.46, 1.86, 8.16, repro,
2007-12-09,-0.52, -0.35, 0.46, 2.55, 2.08, 8.74, repro,
2007-12-10,-0.50, 0.49, 8.43, 2.36, 1.82, 7.86, repro,
2007-12-11,-0.44, -0.25, -1.39, 2.37, 1.81, 7.87, repro,
2007-12-12,-0.22, -0.02, 1.43, 2.32, 1.73, 7.62, repro,
2007-12-13,-1.97, -0.45, -4.12, 2.24, 1.67, 7.23, repro,
2007-12-14,-1.67, 0.43, 3.87, 2.16, 1.59, 7.03, repro,
2007-12-15,-0.31, -0.49, 6.81, 2.20, 1.64, 7.13, repro,
2007-12-16,-0.31, 0.56, 6.95, 2.25, 1.66, 7.28, repro,
2007-12-17,-0.69, -0.15, 6.97, 2.30, 1.70, 7.47, repro,
2007-12-18,-0.42, 1.11, 11.94, 2.17, 1.63, 7.15, repro,
2007-12-19,0.21, 0.09, 17.24, 2.25, 1.70, 7.57, repro,
2007-12-20,-0.51, -0.44, 14.18, 2.17, 1.62, 7.09, repro,
2007-12-21,-1.75, -1.26, 5.68, 2.35, 1.69, 7.64, repro,
2007-12-22,-0.42, -0.77, 2.44, 2.33, 1.71, 7.68, repro,
2007-12-23,-2.66, 0.63, 2.98, 2.27, 1.67, 7.36, repro,
2007-12-24,1.36, -0.71, 2.96, 2.23, 1.67, 7.26, repro,
2007-12-25,2.10, -1.63, 10.27, 2.22, 1.68, 7.29, repro,
2007-12-26,0.02, -0.13, 8.57, 2.19, 1.60, 7.10, repro,
2007-12-27,-0.38, -0.47, 6.88, 2.23, 1.63, 7.28, repro,
2007-12-28,-0.54, 0.41, 8.88, 2.26, 1.68, 7.46, repro,
2007-12-29,-0.79, 0.61, 8.66, 2.18, 1.61, 7.15, repro,
2007-12-30,-0.36, -0.76, 5.52, 2.19, 1.63, 7.16, repro,
2007-12-31,-0.47, 0.36, 4.04, 2.18, 1.57, 7.00, repro,
2008-01-01,-0.14, -0.06, -4.17, 2.18, 1.57, 7.03, repro,
2008-01-02,-0.48, -0.44, -2.01, 2.21, 1.59, 7.13, repro,
2008-01-03,-2.40, 0.07, 5.53, 2.19, 1.61, 7.13, repro,
2008-01-04,-1.18, 0.35, 11.44, 2.18, 1.57, 7.11, repro,
2008-01-05,-2.98, -0.24, 18.31, 2.14, 1.55, 6.94, repro,
2008-01-06,-0.06, -0.92, 15.99, 2.12, 1.54, 6.87, repro,
2008-01-07,0.38, -0.49, 12.41, 2.16, 1.57, 7.04, repro,
2008-01-08,-0.94, -0.25, 5.48, 2.20, 1.56, 7.07, repro,
2008-01-09,-1.87, -0.13, 3.38, 2.19, 1.56, 7.06, repro,
2008-01-10,0.03, -0.02, 8.53, 2.13, 1.55, 6.92, repro,
2008-01-11,0.68, -1.74, 4.64, 2.12, 1.55, 6.90, repro,
2008-01-12,0.11, -0.34, 3.37, 2.13, 1.55, 6.93, repro,
2008-01-13,-0.53, -0.48, -4.91, 2.12, 1.55, 6.85, repro,
2008-01-14,0.38, 0.17, -0.95, 2.14, 1.57, 7.01, repro,
2008-01-15,-0.05, -0.10, 4.66, 2.13, 1.57, 6.98, repro,
2008-01-16,-0.63, -0.35, -0.79, 2.18, 1.59, 7.16, repro,
2008-01-17,0.70, -0.72, -0.11, 2.20, 1.59, 7.19, repro,
2008-01-18,0.71, -0.70, 1.79, 2.16, 1.61, 7.17, repro,
2008-01-19,1.05, -0.31, -4.52, 2.19, 1.58, 7.14, repro,
2008-01-20,-0.37, 0.07, 0.36, 2.12, 1.58, 7.00, repro,
2008-01-21,-0.28, -0.08, 3.63, 2.14, 1.57, 7.03, repro,
2008-01-22,-0.03, 0.06, -0.12, 2.12, 1.56, 6.93, repro,
2008-01-23,0.48, -0.13, -0.50, 2.13, 1.57, 7.03, repro,
2008-01-24,-1.50, 0.52, 8.92, 2.15, 1.58, 7.05, repro,
2008-01-25,-0.05, 0.73, 6.85, 2.13, 1.57, 7.00, repro,
2008-01-26,-0.63, -0.10, 4.21, 2.14, 1.58, 7.07, repro,
2008-01-27,-0.85, 0.93, 9.46, 2.18, 1.60, 7.22, repro,
2008-01-28,-0.43, -0.02, 16.27, 2.15, 1.58, 7.10, repro,
2008-01-29,-0.67, 0.51, 15.66, 2.24, 1.66, 7.37, repro,
2008-01-30,-0.98, 0.46, 11.99, 2.26, 1.64, 7.28, repro,
2008-01-31,-1.22, 0.74, 4.14, 2.13, 1.56, 7.01, repro,
2008-02-01,-1.73, -0.12, 2.20, 2.12, 1.56, 6.98, repro,
2008-02-02,-1.44, 1.24, 5.21, 2.11, 1.55, 6.92, repro,
2008-02-03,0.43, 0.76, 6.31, 2.12, 1.56, 6.98, repro,
2008-02-04,0.74, 0.76, 1.07, 2.13, 1.56, 6.99, repro,
2008-02-05,1.13, 0.43, 4.21, 2.23, 1.65, 7.30, repro,
2008-02-06,-0.11, 0.13, 5.65, 2.17, 1.62, 7.17, repro,
2008-02-07,-2.20, 0.26, 4.52, 2.16, 1.59, 7.15, repro,
2008-02-08,-2.71, 1.68, 13.77, 2.16, 1.63, 7.20, repro,
2008-02-09,-2.80, 4.30, -1.94, 2.13, 1.57, 7.07, repro,
2008-02-10,-1.02, 1.81, -3.24, 2.13, 1.57, 7.08, repro,
2008-02-11,-1.68, 2.15, -0.38, 2.15, 1.62, 7.10, repro,
2008-02-12,-1.47, 0.37, 1.11, 2.11, 1.55, 6.88, repro,
2008-02-13,0.64, 1.07, 4.37, 2.12, 1.57, 6.95, repro,
2008-02-14,1.97, 0.93, -2.25, 2.13, 1.57, 6.98, repro,
2008-02-15,0.36, 1.34, -4.15, 2.15, 1.61, 7.09, repro,
2008-02-16,-1.04, 0.98, -1.37, 2.11, 1.56, 6.92, repro,
2008-02-17,-0.26, 1.13, 1.70, 2.11, 1.55, 6.89, repro,
2008-02-18,0.10, 1.33, 0.43, 2.15, 1.63, 7.08, repro,
2008-02-19,0.13, 1.32, -0.89, 2.13, 1.58, 7.00, repro,
2008-02-20,0.28, 1.89, 3.19, 2.11, 1.55, 6.88, repro,
2008-02-21,0.02, 1.19, 7.75, 2.18, 1.64, 7.16, repro,
2008-02-22,0.85, 1.30, 7.21, 2.10, 1.56, 6.89, repro,
2008-02-23,-0.81, 1.46, 5.17, 2.11, 1.57, 6.95, repro,
2008-02-24,0.34, 2.22, 6.98, 2.12, 1.56, 6.92, repro,
2008-02-25,-0.58, 0.47, 3.13, 2.19, 1.63, 7.21, repro,
2008-02-26,0.43, 1.34, -4.86, 2.14, 1.58, 7.06, repro,
2008-02-27,-0.14, 1.30, -6.58, 2.23, 1.67, 7.39, repro,
2008-02-28,-0.37, 1.29, -4.31, 2.15, 1.60, 7.11, repro,
2008-02-29,-0.40, 0.98, 1.47, 2.14, 1.56, 7.01, repro,
2008-03-01,-2.10, 0.45, 5.32, 2.14, 1.57, 7.04, repro,
2008-03-02,0.35, 0.50, -4.01, 2.16, 1.57, 7.07, repro,
2008-03-03,0.37, 1.08, -2.41, 2.16, 1.65, 7.19, repro,
2008-03-04,-0.79, 1.53, 4.20, 2.11, 1.56, 6.93, repro,
2008-03-05,-0.43, 0.72, -1.88, 2.20, 1.67, 7.35, repro,
2008-03-06,0.90, 0.88, -3.22, 2.13, 1.56, 6.98, repro,
2008-03-07,-0.02, 1.24, -1.30, 2.14, 1.57, 7.02, repro,
2008-03-08,-0.43, 1.16, 2.62, 2.17, 1.60, 7.20, repro,
2008-03-09,-0.90, 0.81, -1.95, 2.21, 1.63, 7.32, repro,
2008-03-10,0.38, 1.53, -1.15, 2.17, 1.62, 7.10, repro,
2008-03-11,-0.39, 0.67, -2.30, 2.12, 1.56, 6.99, repro,
2008-03-12,0.41, -0.31, 0.08, 2.18, 1.61, 7.28, repro,
2008-03-13,-1.07, 0.70, 6.04, 2.16, 1.60, 7.17, repro,
2008-03-14,0.75, 1.65, 9.14, 2.17, 1.61, 7.28, repro,
2008-03-15,-0.03, 1.26, 1.71, 2.15, 1.60, 7.20, repro,
2008-03-16,-0.49, 1.40, 7.91, 2.21, 1.64, 7.41, repro,
2008-03-17,-0.76, 1.47, -4.26, 2.26, 1.71, 7.65, repro,
2008-03-18,-1.42, 0.99, 3.99, 2.17, 1.63, 7.28, repro,
2008-03-19,-1.27, 0.94, 1.75, 2.19, 1.62, 7.27, repro,
2008-03-20,-1.58, 0.74, 2.30, 2.18, 1.62, 7.23, repro,
2008-03-21,0.77, 1.15, -3.60, 2.18, 1.61, 7.19, repro,
2008-03-22,1.35, 0.94, -8.30, 2.17, 1.60, 7.14, repro,
2008-03-23,0.32, 0.65, -5.76, 2.17, 1.62, 7.24, repro,
2008-03-24,0.51, 0.95, -2.68, 2.17, 1.59, 7.15, repro,
2008-03-25,0.37, 1.64, 0.20, 2.22, 1.65, 7.33, repro,
2008-03-26,0.32, 1.53, 1.23, 2.24, 1.65, 7.36, repro,
2008-03-27,-0.06, 0.76, 0.55, 2.20, 1.63, 7.24, repro,
2008-03-28,0.66, 0.39, 0.74, 2.18, 1.61, 7.18, repro,
2008-03-29,-1.67, 0.50, 5.18, 2.14, 1.55, 6.94, repro,
2008-03-30,0.84, 0.70, 2.22, 2.19, 1.59, 7.24, repro,
2008-03-31,1.09, -1.02, -3.87, 2.15, 1.58, 7.08, repro,
2008-04-01,1.16, 0.30, 0.41, 2.22, 1.64, 7.28, repro,
2008-04-02,0.20, 1.28, 2.77, 2.23, 1.58, 7.18, repro,
2008-04-03,0.58, 0.43, 0.06, 2.15, 1.56, 7.01, repro,
2008-04-04,1.08, 0.32, 0.63, 2.13, 1.55, 6.98, repro,
2008-04-05,-0.38, 0.32, 3.42, 2.16, 1.57, 7.08, repro,
2008-04-06,0.45, 0.12, 2.37, 2.19, 1.62, 7.21, repro,
2008-04-07,1.15, 0.25, -2.03, 2.15, 1.55, 6.98, repro,
2008-04-08,0.47, 0.26, -2.67, 2.15, 1.55, 7.03, repro,
2008-04-09,-0.13, 0.33, 5.76, 2.14, 1.56, 7.04, repro,
2008-04-10,-0.91, -0.35, 4.47, 2.14, 1.56, 7.08, repro,
2008-04-11,2.09, 0.17, -3.80, 2.20, 1.64, 7.28, repro,
2008-04-12,0.40, 0.40, -8.38, 2.17, 1.58, 7.11, repro,
2008-04-13,0.80, 1.02, -2.17, 2.14, 1.55, 6.98, repro,
2008-04-14,-1.82, -0.06, 2.79, 2.13, 1.56, 7.05, repro,
2008-04-15,-0.88, 0.82, 15.67, 2.19, 1.65, 7.29, repro,
2008-04-16,-1.43, -0.22, 6.55, 2.19, 1.63, 7.26, repro,
2008-04-17,-0.33, -0.33, -3.23, 2.14, 1.56, 7.03, repro,
2008-04-18,0.40, 0.42, 4.95, 2.14, 1.55, 6.99, repro,
2008-04-19,-0.55, 0.70, -0.44, 2.13, 1.54, 6.94, repro,
2008-04-20,-0.17, 1.20, 1.65, 2.13, 1.55, 6.98, repro,
2008-04-21,-0.45, 0.05, -0.42, 2.15, 1.55, 7.06, repro,
2008-04-22,0.59, 0.39, -0.28, 2.16, 1.54, 6.99, repro,
2008-04-23,1.13, 0.18, -0.47, 2.21, 1.60, 7.19, repro,
2008-04-24,0.72, 0.90, 0.03, 2.16, 1.57, 7.06, repro,
2008-04-25,-0.31, 1.82, 0.41, 2.14, 1.55, 6.96, repro,
2008-04-26,1.21, -0.28, -7.15, 2.27, 1.63, 7.32, repro,
2008-04-27,0.56, 0.08, -1.40, 2.24, 1.57, 7.11, repro,
2008-04-28,0.52, 0.05, -4.53, 2.24, 1.57, 7.08, repro,
2008-04-29,1.27, -1.10, 3.94, 2.30, 1.59, 7.25, repro,
2008-04-30,0.04, -0.19, 6.26, 2.19, 1.57, 7.09, repro,
2008-05-01,-0.13, 0.24, 4.63, 2.21, 1.58, 7.17, repro,
2008-05-02,-0.87, -0.49, -0.94, 2.20, 1.58, 7.13, repro,
2008-05-03,0.53, 0.44, 0.67, 2.21, 1.57, 7.11, repro,
2008-05-04,0.58, -0.13, 1.31, 2.15, 1.54, 6.95, repro,
2008-05-05,0.11, 0.10, -0.90, 2.20, 1.57, 7.11, repro,
2008-05-06,0.09, -0.23, -1.05, 2.18, 1.57, 7.07, repro,
2008-05-07,0.62, -0.88, -0.43, 2.15, 1.54, 6.96, repro,
2008-05-08,2.00, -1.28, 2.61, 2.25, 1.63, 7.22, repro,
2008-05-09,0.72, 0.72, 4.13, 2.19, 1.56, 7.04, repro,
2008-05-10,1.27, 0.67, 5.43, 2.17, 1.55, 6.98, repro,
2008-05-11,-0.19, -1.26, 2.86, 2.18, 1.57, 7.09, repro,
2008-05-12,0.05, -0.63, 4.50, 2.20, 1.57, 7.06, repro,
2008-05-13,0.67, 0.20, 4.54, 2.17, 1.54, 6.95, repro,
2008-05-14,-0.32, -1.54, -1.30, 2.18, 1.55, 7.00, repro,
2008-05-15,-0.95, 0.01, -2.09, 2.18, 1.54, 6.99, repro,
2008-05-16,-0.51, 0.27, -3.80, 2.16, 1.54, 6.93, repro,
2008-05-17,0.54, -0.04, -2.98, 2.19, 1.58, 7.13, repro,
2008-05-18,-0.10, 0.03, 5.24, 2.21, 1.58, 7.15, repro,
2008-05-19,1.12, -0.60, 10.16, 2.16, 1.55, 7.03, repro,
2008-05-20,-0.27, -0.21, 8.62, 2.17, 1.55, 7.04, repro,
2008-05-21,-0.57, -0.20, 3.59, 2.17, 1.55, 7.03, repro,
2008-05-22,0.62, 0.63, 8.51, 2.17, 1.57, 7.10, repro,
2008-05-23,0.84, 0.27, 11.15, 2.14, 1.56, 7.02, repro,
2008-05-24,1.64, -0.96, -0.63, 2.15, 1.55, 7.00, repro,
2008-05-25,-1.18, 0.91, 6.97, 2.23, 1.57, 7.20, repro,
2008-05-26,0.42, 1.18, 9.55, 2.19, 1.61, 7.23, repro,
2008-05-27,-0.65, 0.99, 0.35, 2.14, 1.54, 6.95, repro,
2008-05-28,0.44, 1.76, 2.65, 2.12, 1.54, 6.91, repro,
2008-05-29,0.20, 0.13, 2.56, 2.20, 1.65, 7.19, repro,
2008-05-30,-0.26, 1.36, -1.57, 2.14, 1.54, 6.98, repro,
2008-05-31,0.06, 1.18, 0.19, 2.15, 1.54, 6.98, repro,
2008-06-01,0.84, 0.48, 0.97, 2.14, 1.54, 6.98, repro,
2008-06-02,-0.27, -0.02, 0.06, 2.15, 1.55, 7.02, repro,
2008-06-03,0.59, 0.46, 5.82, 2.19, 1.60, 7.22, repro,
2008-06-04,0.76, 0.27, 10.57, 2.14, 1.54, 6.98, repro,
2008-06-05,0.28, 0.83, 7.17, 2.15, 1.55, 6.98, repro,
2008-06-06,-0.90, -0.20, 6.91, 2.18, 1.57, 7.08, repro,
2008-06-07,0.18, -0.09, 4.40, 2.18, 1.61, 7.11, repro,
2008-06-08,-0.38, 0.92, 0.81, 2.19, 1.59, 7.09, repro,
2008-06-09,-0.30, 0.99, 3.41, 2.17, 1.58, 7.03, repro,
2008-06-10,-0.16, 1.34, 2.51, 2.15, 1.55, 6.99, repro,
2008-06-11,-0.28, 2.24, 1.87, 2.14, 1.55, 7.00, repro,
2008-06-12,0.55, 1.15, -0.03, 2.16, 1.57, 7.08, repro,
2008-06-13,0.01, 1.46, -2.95, 2.14, 1.53, 6.95, repro,
2008-06-14,0.35, 1.43, 2.61, 2.20, 1.58, 7.14, repro,
2008-06-15,1.06, 0.61, 2.23, 2.23, 1.65, 7.30, repro,
2008-06-16,0.18, 1.89, 1.72, 2.15, 1.55, 7.03, repro,
2008-06-17,-1.13, 0.23, 3.43, 2.16, 1.56, 7.07, repro,
2008-06-18,0.30, 1.14, 6.52, 2.20, 1.61, 7.22, repro,
2008-06-19,1.22, 1.30, 1.59, 2.21, 1.64, 7.46, repro,
2008-06-20,1.24, 1.55, 0.10, 2.14, 1.54, 6.95, repro,
2008-06-21,0.95, 1.78, 1.29, 2.16, 1.57, 7.06, repro,
2008-06-22,-1.08, 1.57, -2.00, 2.15, 1.56, 7.03, repro,
2008-06-23,1.35, 3.01, 5.58, 2.15, 1.55, 6.97, repro,
2008-06-24,0.30, 1.84, 5.79, 2.14, 1.54, 6.91, repro,
2008-06-25,-0.03, 1.07, 3.82, 2.14, 1.54, 6.90, repro,
2008-06-26,0.50, -0.03, 8.10, 2.18, 1.60, 7.16, repro,